Regional Weather Roundup
Issued by NWS

Home | Current Version | Previous Version | Graphics & Text | Print | Product List | Glossary On
Versions: 1 2 3 4 5 6 7 8 9 10 11 12 13 14 15 16 17 18 19 20 21 22 23 24 25 26 27 28 29 30 31 32 33 34 35 36 37 38 39 40 41 42 43 44 45 46 47 48 49 50
000
ASUS43 KDTX 212310
RWRMI
MICHIGAN HOURLY REGIONAL WEATHER ROUNDUP
NATIONAL WEATHER SERVICE DETROIT/PONTIAC MI
700 PM EDT TUE OCT 21 2014

NOTE: "FAIR" INDICATES FEW OR NO CLOUDS BELOW 12,000 FEET WITH NO
SIGNIFICANT WEATHER AND/OR OBSTRUCTION TO VISIBILITY.

MIZ047>049-052>055-059>063-066>070-074>076-081>083-220000-
SOUTHEAST LOWER MICHIGAN

CITY           SKY/WX    TMP DP  RH WIND       PRES   REMARKS
ADRIAN         CLOUDY    45  36  70 N12G22    30.16R
ALMA           CLEAR     43  34  70 E3        30.18R
ANN ARBOR      CLOUDY    45  35  68 N17G25    30.15R
BAD AXE        CLOUDY    43  37  78 N10G18    30.19R
CARO           CLOUDY    43  37  78 N5        30.18R
DETROIT CITY   CLOUDY    47  37  68 N18G25    30.13R
DETROIT        CLOUDY    45  37  73 N18       30.15R
FLINT          CLOUDY    45  35  68 N13G22    30.19R
GROSSE ILE     CLOUDY    46  39  76 N16G23    30.12R
HILLSDALE      CLOUDY    45  36  71 N7        30.16R
HOWELL         CLOUDY    43  36  77 N5        30.17R

CITY           SKY/WX    TMP DP  RH WIND       PRES   REMARKS
JACKSON        CLOUDY    44  35  70 N9        30.17R
LAMBERTVILLE   CLOUDY    46  37  71 N9        30.15R
LANSING        CLEAR     43  34  70 NE5       30.19R
LAPEER         CLOUDY    43  35  73 N8        30.17R
MASON          CLOUDY    45  35  68 N7        30.18R
MONROE         CLOUDY    46  39  76 N9        30.13R
MT. CLEMENS    CLOUDY    44  39  82 N17G26    30.11R
PONTIAC        CLOUDY    43  35  73 N13       30.15R
PORT HOPE        N/A     46  36  68 N16G26    30.17
PORT HURON     LGT RAIN  45  41  87 N10G20    30.13R
TRI CITIES     CLEAR     45  35  68 E8        30.20R
TROY           CLOUDY    45  37  71 N13G25    30.16R
SAGINAW HB     CLOUDY    45  36  70 NE9       30.19R
$$
MIZ043>046-050>051-056>058-064>065-071>073-077>080-220000-
SOUTHWEST LOWER MICHIGAN

CITY           SKY/WX    TMP DP  RH WIND       PRES   REMARKS
BATTLE CREEK   CLOUDY    47  35  63 N7        30.18R
BENTON HARBOR  MOCLDY    47  38  71 NE3       30.19R
BIG RAPIDS     CLEAR     47  35  61 N5        30.18R
COLDWATER      CLOUDY    48  38  70 N9        30.17R
FREMONT        FAIR      49  30  48 NE3       30.19R
HOLLAND        CLEAR     49  37  63 CALM      30.19R
GRAND RAPIDS   PTCLDY    46  36  68 N5        30.19R
IONIA          FAIR      47  35  62 CALM      30.17R
KALAMAZOO      MOCLDY    47  37  68 N8        30.19R
LUDINGTON      CLEAR     42  37  80 N10       30.22R
MARSHALL       CLOUDY    45  35  67 CALM      30.17R
MOUNT PLEASANT CLEAR     47  30  51 N5        30.18R
MUSKEGON       CLEAR     49  38  65 NW8       30.19R
SOUTH HAVEN    CLEAR     45  38  77 CALM      30.19R
$$
MIZ016>042-220000-
NORTHERN LOWER MICHIGAN

CITY           SKY/WX    TMP DP  RH WIND       PRES   REMARKS
ALPENA         CLEAR     37  29  72 NE7       30.23R WCI  32
BEAVER ISLAND  CLEAR     42  33  68 CALM      30.26R
BELLAIRE       CLEAR     44  32  62 NW3       30.24R
CADILLAC       CLEAR     42  35  76 NW6       30.19R
CHARLEVOIX     CLEAR     45  33  64 N7        30.27R
FRANKFORT      CLEAR     45  34  66 CALM      30.24R
GAYLORD        CLEAR     40  26  57 NE3       30.22R
GRAYLING       CLEAR     41  27  57 NE6       30.21R
HARBOR SPRINGS CLEAR     43  28  55 CALM      30.24R
HOUGHTON LAKE  CLEAR     43  27  53 NE7       30.20R
MANISTEE       CLEAR     45  34  65 N5        30.24R
OSCODA         CLEAR     41  32  69 N9G17     30.21R
PELLSTON       CLEAR     42  29  59 CALM      30.25R
TRAVERSE CITY  CLEAR     45  33  63 N5        30.22R
$$
MIZ007>008-015-220000-
EASTERN UPPER MICHIGAN

CITY           SKY/WX    TMP DP  RH WIND       PRES   REMARKS
KINROSS        CLEAR     39  34  81 NW5       30.25R
MACKINAC ISLAN CLEAR     43  30  61 NE6       30.25R
NEWBERRY       CLEAR     38  31  77 N7        30.27R WCI  33
S. S. MARIE    CLEAR     44  26  49 NE7       30.25R
MUNISING         N/A     42  33  70 N9        30.28S
$$
MIZ004>006-011>014-085-220000-
CENTRAL UPPER MICHIGAN

CITY           SKY/WX    TMP DP  RH WIND       PRES   REMARKS
MANISTIQUE     CLEAR     40  31  68 N7        30.26R
ESCANABA       CLEAR     45  28  53 NE6       30.26R
MENOMINEE      CLEAR     46  30  53 E5        30.24R
SAWYER-GWINN   CLEAR     36  30  80 NE8       30.27R WCI  29
$$
MIZ001>003-009>011-084-220000-
WESTERN UPPER MICHIGAN

CITY           SKY/WX    TMP DP  RH WIND       PRES   REMARKS
IRON MOUNTAIN  CLEAR     46  29  51 E3        30.23S
HOUGHTON       CLEAR     38  31  76 E6        30.26S WCI  33
COPPER HARBOR    N/A     39  31  72 S3        30.29R
IRONWOOD       CLEAR     46  36  66 SE3       30.21S
$$

ABBREVIATIONS USED IN REMARKS
   TC - TEMPERATURE IN CELSIUS
  WCI - WIND CHILL INDEX
   HX - HEAT INDEX
  VSB - VISIBILITY




USA.gov is the U.S. government's official web portal to all federal, state and local government web resources and services.